When you browse on this site, cookies collect data to enhance your experience and personalize the content and advertising you see.
Visit our Privacy Policy to learn more. By continuing to use the site, you agree to this use of cookies and data.
  • In Hungary
  • List of Countries
  • For 7 days
  • Water Temperature
  • Weather Map
  • News
  • Weather Widgets
  • user-avatar
    Login

    Hourly Weather Nadi

    Today, 15 December, Sunday

    Time Temperature Precipitation Wind Pressure Humidity
    00:00 +26°C° 0 mm 2 mps 752 mmHg 92%
    01:00 +25°C° 0 mm 2 mps 751 mmHg 92%
    02:00 +25°C° 0 mm 2 mps 751 mmHg 92%
    03:00 +25°C° 0 mm 2 mps 750 mmHg 92%
    04:00 +25°C° 0 mm 2 mps 750 mmHg 91%
    05:00 +25°C° 0 mm 2 mps 750 mmHg 91%
    06:00 +25°C° 0 mm 2 mps 751 mmHg 90%
    07:00 +27°C° 0 mm 1 mps 751 mmHg 82%
    08:00 +29°C° 0 mm 1 mps 751 mmHg 74%
    09:00 +31°C° 0 mm 1 mps 751 mmHg 66%
    10:00 +31°C° 0.3 mm 1 mps 751 mmHg 68%
    11:00 +31°C° 0.3 mm 2 mps 751 mmHg 70%
    12:00 +31°C° 0 mm 2 mps 750 mmHg 72%
    13:00 +31°C° 1.6 mm 2 mps 750 mmHg 76%
    14:00 +30°C° 1.6 mm 2 mps 750 mmHg 81%
    15:00 +29°C° 1.6 mm 2 mps 750 mmHg 85%
    16:00 +28°C° 1.9 mm 2 mps 750 mmHg 87%
    17:00 +28°C° 1.9 mm 3 mps 750 mmHg 88%
    18:00 +27°C° 1.9 mm 4 mps 750 mmHg 90%
    19:00 +27°C° 0.4 mm 4 mps 751 mmHg 90%
    20:00 +27°C° 0.4 mm 4 mps 751 mmHg 90%
    21:00 +27°C° 0.4 mm 4 mps 751 mmHg 91%
    22:00 +27°C° 0.2 mm 3 mps 751 mmHg 90%
    23:00 +26°C° 0.2 mm 3 mps 751 mmHg 90%

    Tomorrow, 16 December, Monday

    Time Temperature Precipitation Wind Pressure Humidity
    00:00 +26°C° 0.2 mm 2 mps 751 mmHg 90%
    01:00 +26°C° 0.1 mm 2 mps 751 mmHg 90%
    02:00 +26°C° 0.1 mm 2 mps 750 mmHg 90%
    03:00 +26°C° 0.1 mm 1 mps 749 mmHg 90%
    04:00 +26°C° 0 mm 1 mps 749 mmHg 90%
    05:00 +26°C° 0 mm 2 mps 750 mmHg 90%
    06:00 +26°C° 0 mm 2 mps 750 mmHg 90%
    07:00 +27°C° 0 mm 2 mps 750 mmHg 86%
    08:00 +28°C° 0 mm 1 mps 750 mmHg 82%
    09:00 +29°C° 0 mm 1 mps 751 mmHg 78%
    10:00 +30°C° 0.1 mm 1 mps 750 mmHg 75%
    11:00 +30°C° 0.1 mm 1 mps 750 mmHg 73%
    12:00 +31°C° 0.1 mm 1 mps 750 mmHg 70%
    13:00 +30°C° 0.4 mm 1 mps 750 mmHg 73%
    14:00 +30°C° 0.4 mm 1 mps 749 mmHg 75%
    15:00 +30°C° 0.4 mm 1 mps 749 mmHg 78%
    16:00 +29°C° 0.4 mm 1 mps 749 mmHg 80%
    17:00 +29°C° 0.4 mm 1 mps 749 mmHg 82%
    18:00 +29°C° 0.4 mm 1 mps 749 mmHg 85%
    19:00 +28°C° 0.1 mm 1 mps 750 mmHg 86%
    20:00 +28°C° 0.1 mm 1 mps 750 mmHg 87%
    21:00 +27°C° 0.1 mm 2 mps 750 mmHg 89%
    22:00 +27°C° 0 mm 2 mps 750 mmHg 89%
    23:00 +26°C° 0 mm 1 mps 750 mmHg 89%

    Day after tomorrow, 17 December, Tuesday

    Time Temperature Precipitation Wind Pressure Humidity
    00:00 +26°C° 0 mm 1 mps 750 mmHg 90%
    01:00 +26°C° 0 mm 1 mps 750 mmHg 90%
    02:00 +26°C° 0 mm 2 mps 749 mmHg 90%
    03:00 +25°C° 0 mm 2 mps 749 mmHg 91%
    04:00 +25°C° 0 mm 2 mps 749 mmHg 90%
    05:00 +26°C° 0 mm 2 mps 749 mmHg 90%
    06:00 +26°C° 0 mm 2 mps 750 mmHg 89%
    07:00 +27°C° 0.1 mm 2 mps 750 mmHg 83%
    08:00 +29°C° 0.1 mm 1 mps 750 mmHg 76%
    09:00 +31°C° 0.1 mm 1 mps 751 mmHg 69%
    10:00 +31°C° 1.3 mm 2 mps 751 mmHg 72%
    11:00 +31°C° 1.3 mm 2 mps 750 mmHg 74%
    12:00 +31°C° 1.3 mm 2 mps 750 mmHg 76%
    13:00 +31°C° 2 mm 2 mps 750 mmHg 78%
    14:00 +31°C° 2 mm 2 mps 749 mmHg 79%
    15:00 +30°C° 2 mm 2 mps 749 mmHg 80%
    16:00 +30°C° 1.1 mm 1 mps 749 mmHg 82%
    17:00 +29°C° 1.1 mm 1 mps 749 mmHg 84%
    18:00 +29°C° 1.1 mm 1 mps 749 mmHg 85%
    19:00 +28°C° 0.1 mm 1 mps 750 mmHg 87%
    20:00 +28°C° 0.1 mm 1 mps 750 mmHg 88%
    21:00 +27°C° 0.1 mm 1 mps 751 mmHg 89%
    22:00 +27°C° 0.1 mm 1 mps 751 mmHg 90%
    23:00 +27°C° 0.1 mm 1 mps 751 mmHg 90%

    18 December, Wednesday

    Time Temperature Precipitation Wind Pressure Humidity
    00:00 +26°C° 0.1 mm 1 mps 751 mmHg 90%
    01:00 +26°C° 0.1 mm 1 mps 750 mmHg 90%
    02:00 +26°C° 0.1 mm 1 mps 750 mmHg 90%
    03:00 +26°C° 0.1 mm 1 mps 749 mmHg 90%
    04:00 +26°C° 0.1 mm 1 mps 749 mmHg 90%
    05:00 +26°C° 0.1 mm 1 mps 750 mmHg 90%
    06:00 +26°C° 0.1 mm 1 mps 750 mmHg 89%
    07:00 +28°C° 0 mm 1 mps 750 mmHg 82%
    08:00 +30°C° 0 mm 1 mps 751 mmHg 74%
    09:00 +30°C° 0 mm 0 mps 751 mmHg 66%
    10:00 +32°C° 0.4 mm 1 mps 751 mmHg 68%
    11:00 +32°C° 0.4 mm 1 mps 751 mmHg 69%
    12:00 +32°C° 0.4 mm 2 mps 751 mmHg 70%
    13:00 +32°C° 1.2 mm 2 mps 750 mmHg 73%
    14:00 +31°C° 1.2 mm 1 mps 750 mmHg 75%
    15:00 +31°C° 1.2 mm 1 mps 750 mmHg 77%
    16:00 +30°C° 0.7 mm 1 mps 750 mmHg 79%
    17:00 +30°C° 0.7 mm 1 mps 750 mmHg 81%
    18:00 +27°C° 0.7 mm 0 mps 750 mmHg 83%
    19:00 +27°C° 0 mm 0 mps 750 mmHg 85%
    20:00 +28°C° 0 mm 1 mps 751 mmHg 87%
    21:00 +27°C° 0 mm 1 mps 751 mmHg 90%
    22:00 +27°C° 0 mm 1 mps 751 mmHg 90%
    23:00 +27°C° 0 mm 1 mps 751 mmHg 91%

    19 December, Thursday

    Time Temperature Precipitation Wind Pressure Humidity
    00:00 +27°C° 0 mm 1 mps 751 mmHg 91%
    01:00 +26°C° 0 mm 1 mps 751 mmHg 91%
    02:00 +26°C° 0 mm 1 mps 750 mmHg 91%
    03:00 +26°C° 0 mm 2 mps 750 mmHg 92%
    04:00 +26°C° 0 mm 2 mps 750 mmHg 91%
    05:00 +26°C° 0 mm 2 mps 750 mmHg 91%
    06:00 +26°C° 0 mm 2 mps 750 mmHg 91%
    07:00 +28°C° 0 mm 2 mps 751 mmHg 85%
    08:00 +29°C° 0 mm 2 mps 751 mmHg 79%
    09:00 +31°C° 0 mm 1 mps 751 mmHg 73%
    10:00 +31°C° 0.2 mm 2 mps 751 mmHg 72%
    11:00 +32°C° 0.2 mm 2 mps 751 mmHg 71%
    12:00 +32°C° 0.2 mm 2 mps 751 mmHg 70%
    13:00 +32°C° 0.9 mm 2 mps 750 mmHg 73%
    14:00 +31°C° 0.9 mm 2 mps 750 mmHg 76%
    15:00 +31°C° 0.9 mm 2 mps 750 mmHg 79%
    16:00 +30°C° 0.6 mm 2 mps 750 mmHg 81%
    17:00 +30°C° 0.6 mm 2 mps 750 mmHg 83%
    18:00 +29°C° 0.6 mm 2 mps 750 mmHg 86%
    19:00 +29°C° 0.3 mm 2 mps 750 mmHg 88%
    20:00 +28°C° 0.3 mm 2 mps 751 mmHg 89%
    21:00 +27°C° 0.3 mm 2 mps 751 mmHg 91%
    22:00 +27°C° 0.1 mm 2 mps 751 mmHg 92%
    23:00 +27°C° 0.1 mm 1 mps 751 mmHg 92%

    20 December, Friday

    Time Temperature Precipitation Wind Pressure Humidity
    00:00 +27°C° 0.1 mm 1 mps 751 mmHg 92%
    01:00 +27°C° 0 mm 1 mps 751 mmHg 93%
    02:00 +26°C° 0 mm 1 mps 750 mmHg 93%
    03:00 +26°C° 0 mm 1 mps 750 mmHg 93%
    04:00 +26°C° 0 mm 1 mps 750 mmHg 92%
    05:00 +26°C° 0 mm 1 mps 750 mmHg 92%
    06:00 +26°C° 0 mm 1 mps 750 mmHg 91%
    07:00 +28°C° 0.2 mm 1 mps 750 mmHg 85%
    08:00 +29°C° 0.2 mm 1 mps 751 mmHg 78%
    09:00 +31°C° 0.2 mm 1 mps 751 mmHg 71%
    10:00 +31°C° 0.6 mm 1 mps 751 mmHg 73%
    11:00 +31°C° 0.6 mm 1 mps 751 mmHg 75%
    12:00 +31°C° 0.6 mm 1 mps 751 mmHg 77%
    13:00 +31°C° 1.2 mm 1 mps 750 mmHg 77%
    14:00 +31°C° 1.2 mm 1 mps 750 mmHg 78%
    15:00 +31°C° 1.2 mm 1 mps 749 mmHg 78%
    16:00 +30°C° 1.2 mm 1 mps 749 mmHg 81%
    17:00 +30°C° 1.2 mm 1 mps 749 mmHg 83%
    18:00 +29°C° 1.2 mm 1 mps 750 mmHg 86%
    19:00 +29°C° 0.6 mm 1 mps 750 mmHg 87%
    20:00 +28°C° 0.6 mm 1 mps 750 mmHg 89%
    21:00 +27°C° 0.6 mm 1 mps 751 mmHg 90%
    22:00 +27°C° 0.3 mm 1 mps 751 mmHg 90%
    23:00 +27°C° 0.3 mm 1 mps 751 mmHg 91%
    Show more